DW0033 Weather Reports


Display with metric or nautical units.
time (UTC)temp
F
wind
direction
speed
MPH
gust
MPH
rain 1hr
in
rain 24hr
in
rain mn
in
humidity
%
barometer
mb
20260506221553 58 144 2.0 12.0 0.00 0.01 0.01 93 1004.7
20260506220054 59 136 3.0 8.0 0.00 0.01 0.01 93 1004.8
20260506214602 59 179 3.0 10.0 0.00 0.01 0.01 92 1004.9
20260506213051 59 255 1.0 8.0 0.00 0.01 0.01 91 1005.1
20260506211550 59 105 4.0 12.0 0.00 0.01 0.01 90 1005.1
20260506210050 59 211 6.0 16.0 0.00 0.01 0.01 90 1005.3
20260506204551 59 153 4.0 10.0 0.00 0.01 0.01 89 1005.4
20260506203047 59 150 3.0 7.0 0.00 0.01 0.01 88 1005.4
20260506201547 59 169 4.0 13.0 0.01 0.01 0.01 88 1005.4
20260506200049 59 194 2.0 15.0 0.01 0.01 0.01 89 1005.4
20260506194546 60 171 5.0 13.0 0.01 0.01 0.01 88 1005.4
20260506193052 60 176 4.0 12.0 0.01 0.01 0.01 88 1005.5
20260506191548 61 159 3.0 14.0 0.00 0.00 0.00 85 1005.5
20260506190041 62 157 5.0 13.0 0.00 0.00 0.00 83 1005.5
20260506184543 63 149 2.0 14.0 0.00 0.00 0.00 79 1005.8
20260506183040 65 218 4.0 13.0 0.00 0.00 0.00 73 1006.2
20260506181549 66 194 5.0 15.0 0.00 0.00 0.00 68 1005.9
20260506180055 68 190 6.0 15.0 0.00 0.00 0.00 63 1005.9
20260506174539 69 207 5.0 21.0 0.00 0.00 0.00 59 1005.9
20260506173042 70 159 10.0 22.0 0.00 0.00 0.00 55 1005.8
20260506171539 71 182 5.0 23.0 0.00 0.00 0.00 54 1006.0
20260506170037 71 221 7.0 17.0 0.00 0.00 0.00 54 1006.0
20260506164535 71 163 4.0 22.0 0.00 0.00 0.00 55 1006.4
20260506163038 70 177 7.0 19.0 0.00 0.00 0.00 55 1006.4
20260506161535 70 202 7.0 21.0 0.00 0.00 0.00 55 1006.9
20260506160031 70 169 8.0 17.0 0.00 0.00 0.00 56 1006.9
20260506154529 69 156 8.0 16.0 0.00 0.00 0.00 58 1007.1
20260506153028 69 303 7.0 16.0 0.00 0.00 0.00 59 1007.4
20260506151528 69 175 3.0 15.0 0.00 0.00 0.00 60 1007.5
20260506150027 69 202 5.0 14.0 0.00 0.00 0.00 61 1007.5
20260506144524 68 155 5.0 12.0 0.00 0.00 0.00 62 1007.6
20260506143026 67 157 2.0 12.0 0.00 0.00 0.00 65 1007.5
20260506141528 66 220 4.0 15.0 0.00 0.00 0.00 66 1007.5
20260506140020 66 236 3.0 14.0 0.00 0.00 0.00 68 1007.8
20260506134517 65 181 5.0 12.0 0.00 0.00 0.00 69 1007.5
20260506133017 64 238 3.0 9.0 0.00 0.00 0.00 71 1008.1
20260506131513 64 107 4.0 12.0 0.00 0.00 0.00 72 1008.2
20260506130017 63 167 3.0 14.0 0.00 0.00 0.00 73 1008.0
20260506124512 63 227 1.0 14.0 0.00 0.00 0.00 73 1008.1
20260506123014 62 150 5.0 13.0 0.00 0.00 0.00 74 1008.3
20260506121510 62 205 3.0 8.0 0.00 0.00 0.00 76 1008.2
20260506120021 61 63 1.0 10.0 0.00 0.00 0.00 77 1008.3
20260506114510 60 164 3.0 12.0 0.00 0.00 0.00 78 1008.5
20260506113009 60 234 4.0 9.0 0.00 0.00 0.00 79 1008.9
20260506111509 59 221 3.0 7.0 0.00 0.00 0.00 80 1008.5
20260506110008 59 180 2.0 9.0 0.00 0.00 0.00 80 1008.5
20260506104507 58 174 1.0 7.0 0.00 0.00 0.00 81 1008.5
20260506103007 58 225 2.0 10.0 0.00 0.00 0.00 82 1008.5
20260506101506 58 21 2.0 6.0 0.00 0.00 0.00 81 1008.5
20260506100005 58 205 0.0 6.0 0.00 0.00 0.00 81 1008.4
20260506094505 58 138 2.0 6.0 0.00 0.00 0.00 81 1008.3
20260506093004 58 115 1.0 8.0 0.00 0.00 0.00 80 1008.4
20260506091504 58 159 2.0 8.0 0.00 0.00 0.00 79 1008.4
20260506090003 58 158 3.0 13.0 0.00 0.00 0.00 79 1008.5
20260506084602 59 181 3.0 8.0 0.00 0.00 0.00 78 1008.6
20260506083103 59 182 3.0 9.0 0.00 0.00 0.00 77 1008.5
20260506081556 59 182 3.0 11.0 0.00 0.00 0.00 76 1008.5
20260506080107 60 40 4.0 10.0 0.00 0.00 0.00 75 1008.5
20260506073103 60 183 5.0 16.0 0.00 0.00 0.00 73 1008.3
20260506071550 61 238 3.0 12.0 0.00 0.00 0.00 73 1008.1
20260506061540 62 87 5.0 15.0 0.00 0.00 0.00 69 1008.1
20260506044538 63 254 4.0 18.0 0.00 0.00 0.00 62 1008.5
20260506043028 63 79 3.0 15.0 0.00 0.00 0.00 62 1008.5
20260506041538 63 180 5.0 12.0 0.00 0.00 0.00 62 1008.5
20260506040029 63 37 4.0 13.0 0.00 0.00 0.00 62 1008.5
20260506034530 62 141 8.0 15.0 0.00 0.00 0.00 63 1008.5
20260506033023 62 172 3.0 13.0 0.00 0.00 0.00 63 1008.5
20260506031523 62 186 3.0 13.0 0.00 0.00 0.00 63 1008.5
20260506030022 62 196 6.0 13.0 0.00 0.00 0.00 63 1008.5
20260506024523 62 296 5.0 11.0 0.00 0.00 0.00 63 1008.5
20260506023022 62 200 4.0 14.0 0.00 0.00 0.00 62 1008.6
20260506021521 63 231 6.0 16.0 0.00 0.00 0.00 60 1008.5
20260506020020 63 175 6.0 17.0 0.00 0.00 0.00 59 1008.3
20260506014521 64 162 5.0 20.0 0.00 0.00 0.00 58 1008.0
20260506013019 64 223 4.0 16.0 0.00 0.00 0.00 58 1007.9
20260506011536 64 188 6.0 19.0 0.00 0.00 0.00 58 1007.6
20260506010019 65 149 6.0 19.0 0.00 0.00 0.00 57 1007.5
20260506004533 66 224 7.0 16.0 0.00 0.00 0.00 55 1007.5
20260506003018 67 144 6.0 20.0 0.00 0.00 0.00 54 1007.0
20260506001517 68 158 5.0 13.0 0.00 0.00 0.00 52 1006.7
20260506000016 68 191 4.0 15.0 0.00 0.00 0.00 50 1006.5
20260505234517 69 215 4.0 18.0 0.00 0.00 0.00 48 1006.4
20260505233025 70 194 3.0 19.0 0.00 0.00 0.00 47 1006.4
20260505231521 71 86 7.0 18.0 0.00 0.00 0.00 46 1006.0
20260505230015 71 225 10.0 18.0 0.00 0.00 0.00 44 1006.0
20260505224514 72 94 3.0 15.0 0.00 0.00 0.00 45 1005.8
20260505223018 73 180 6.0 18.0 0.00 0.00 0.00 45 1005.4